Weather History for KPVC - November, 2011

Change the Weather History Date:

Friday, November 18, 2011

  Actual Average (WUND) Record (WUND)
Temperature  
Mean Temperature 40 °F -  
Max Temperature 44 °F - - (-1)
Min Temperature 37 °F - - (-1)
Degree Days  
Heating Degree Days 24    
Moisture  
Dew Point 24 °F    
Average Humidity 51    
Maximum Humidity 65    
Minimum Humidity 39    
Precipitation  
Precipitation 0.00 in - - ()
Sea Level Pressure  
Sea Level Pressure 30.22 in    
Wind  
Wind Speed 20 mph (West)    
Max Wind Speed 26 mph    
Max Gust Speed 36 mph    
Visibility 10 miles    
Events      
Averages and records for this station are not official NWS values.
T = Trace of Precipitation, MM = Missing Value Source: NWS Daily Summary

Daily Weather History Graph

Daily Weather History Graph

Search for Another Location

Airport or City:

Trip Planner

Search our weather history database for the weather conditions in past years. The results will help you decide how hot, cold, wet, or windy it might be!

Date:

Astronomy

Nov. 18, 2011 Rise Set
Actual Time 6:34 AM EST 4:17 PM EST
Civil Twilight 6:03 AM EST 4:47 PM EST
Nautical Twilight 5:29 AM EST 5:21 PM EST
Astronomical Twilight 4:56 AM EST 5:54 PM EST
Moon 11:45 PM EST (11/18) 12:09 PM EST (11/18)
Length of Visible Light 10h 43m
Length of Day
9h 43m
Waning Gibbous, 49% of the Moon is Illuminated
Nov 18
Waning Gibbous
Nov 25
New
Dec 2
First Quarter
Dec 10
Full
Dec 17
Last Quarter

Hourly Weather History & Observations

Time (EST) Temp. Windchill Dew Point Humidity Pressure Visibility Wind Dir Wind Speed Gust Speed Precip Events Conditions
12:15 AM 42.8 °F 34.5 °F 30.2 °F 61% 29.88 in 10.0 mi WNW 18.4 mph 26.5 mph N/A   Mostly Cloudy
12:35 AM 41.0 °F 31.6 °F 28.4 °F 61% 29.88 in 10.0 mi West 20.7 mph 35.7 mph N/A   Mostly Cloudy
12:55 AM 41.0 °F 31.4 °F 28.4 °F 61% 29.89 in 10.0 mi West 21.9 mph 29.9 mph N/A   Mostly Cloudy
1:15 AM 41.0 °F 30.7 °F 28.4 °F 61% 29.90 in 10.0 mi WNW 25.3 mph 33.4 mph N/A   Scattered Clouds
1:55 AM 41.0 °F 31.1 °F 28.4 °F 61% 29.93 in 10.0 mi West 23.0 mph 29.9 mph N/A   Mostly Cloudy
2:15 AM 39.2 °F 28.7 °F 26.6 °F 61% 29.94 in 10.0 mi West 23.0 mph 32.2 mph N/A   Mostly Cloudy
2:35 AM 39.2 °F 29.0 °F 26.6 °F 61% 29.95 in 10.0 mi WNW 21.9 mph 27.6 mph N/A   Mostly Cloudy
3:35 AM 39.2 °F 28.5 °F 26.6 °F 61% 29.99 in 10.0 mi West 24.2 mph 31.1 mph N/A   Partly Cloudy
3:55 AM 39.2 °F 28.3 °F 24.8 °F 56% 30.00 in 10.0 mi West 25.3 mph 33.4 mph N/A   Clear
4:35 AM 39.2 °F 28.5 °F 26.6 °F 61% 30.03 in 10.0 mi West 24.2 mph 29.9 mph N/A   Clear
4:55 AM 39.2 °F 28.5 °F 26.6 °F 61% 30.04 in 10.0 mi WNW 24.2 mph 32.2 mph N/A   Clear
5:15 AM 39.2 °F 28.0 °F 24.8 °F 56% 30.05 in 10.0 mi West 26.5 mph 33.4 mph N/A   Clear
5:35 AM 37.4 °F 26.1 °F 26.6 °F 65% 30.07 in 10.0 mi West 24.2 mph 31.1 mph N/A   Clear
5:55 AM 37.4 °F 26.6 °F 26.6 °F 65% 30.08 in 10.0 mi West 21.9 mph 28.8 mph N/A   Clear
6:15 AM 37.4 °F 26.9 °F 24.8 °F 60% 30.09 in 10.0 mi West 20.7 mph 27.6 mph N/A   Clear
6:35 AM 37.4 °F 26.6 °F 26.6 °F 65% 30.11 in 10.0 mi West 21.9 mph 33.4 mph N/A   Clear
7:15 AM 39.2 °F 28.7 °F 26.6 °F 61% 30.14 in 10.0 mi West 23.0 mph 33.4 mph N/A   Clear
7:35 AM 39.2 °F 28.0 °F 26.6 °F 61% 30.15 in 10.0 mi WNW 26.5 mph 34.5 mph N/A   Clear
7:55 AM 39.2 °F 28.5 °F 26.6 °F 61% 30.16 in 10.0 mi WNW 24.2 mph 33.4 mph N/A   Partly Cloudy
8:15 AM 39.2 °F 28.5 °F 26.6 °F 61% 30.17 in 10.0 mi West 24.2 mph 33.4 mph N/A   Clear
8:35 AM 39.2 °F 29.6 °F 26.6 °F 61% 30.18 in 10.0 mi WNW 19.6 mph 29.9 mph N/A   Clear
8:55 AM 41.0 °F 30.9 °F 26.6 °F 57% 30.19 in 10.0 mi West 24.2 mph 34.5 mph N/A   Clear
9:15 AM 41.0 °F 31.4 °F 24.8 °F 53% 30.19 in 10.0 mi WNW 21.9 mph 29.9 mph N/A   Clear
9:55 AM 42.8 °F 33.1 °F 24.8 °F 49% 30.22 in 10.0 mi WNW 25.3 mph 32.2 mph N/A   Partly Cloudy
10:15 AM 42.8 °F 33.1 °F 24.8 °F 49% 30.22 in 10.0 mi WNW 25.3 mph 32.2 mph N/A   Partly Cloudy
10:35 AM 42.8 °F 34.0 °F 24.8 °F 49% 30.23 in 10.0 mi NW 20.7 mph 31.1 mph N/A   Partly Cloudy
10:55 AM 42.8 °F 34.3 °F 23.0 °F 46% 30.23 in 10.0 mi WNW 19.6 mph 29.9 mph N/A   Partly Cloudy
11:15 AM 42.8 °F 35.1 °F 24.8 °F 49% 30.23 in 10.0 mi WNW 16.1 mph 27.6 mph N/A   Partly Cloudy
11:35 AM 44.6 °F 37.4 °F 23.0 °F 43% 30.23 in 10.0 mi WNW 16.1 mph 27.6 mph N/A   Partly Cloudy
11:55 AM 44.6 °F 36.4 °F 23.0 °F 43% 30.23 in 10.0 mi West 20.7 mph 28.8 mph N/A   Clear
12:16 PM 44.6 °F 37.2 °F 21.2 °F 39% 30.24 in 10.0 mi WNW 17.3 mph 26.5 mph N/A   Clear
12:35 PM 44.6 °F 37.2 °F 21.2 °F 39% 30.25 in 10.0 mi WNW 17.3 mph 25.3 mph N/A   Clear
1:15 PM 44.6 °F 36.6 °F 23.0 °F 43% 30.26 in 10.0 mi WNW 19.6 mph 24.2 mph N/A   Clear
1:35 PM 44.6 °F 36.9 °F 21.2 °F 39% 30.26 in 10.0 mi WNW 18.4 mph 25.3 mph N/A   Clear
1:55 PM 44.6 °F 37.2 °F 24.8 °F 46% 30.27 in 10.0 mi WNW 17.3 mph 24.2 mph N/A   Clear
2:15 PM 44.6 °F 37.8 °F 23.0 °F 43% 30.27 in 10.0 mi WNW 15.0 mph 25.3 mph N/A   Clear
2:35 PM 44.6 °F 37.4 °F 23.0 °F 43% 30.28 in 10.0 mi WNW 16.1 mph 23.0 mph N/A   Clear
2:55 PM 44.6 °F 37.8 °F 24.8 °F 46% 30.29 in 10.0 mi WNW 15.0 mph 19.6 mph N/A   Clear
3:15 PM 44.6 °F 37.8 °F 24.8 °F 46% 30.30 in 10.0 mi West 15.0 mph 20.7 mph N/A   Clear
3:55 PM 44.6 °F 38.4 °F 21.2 °F 39% 30.30 in 10.0 mi West 12.7 mph 20.7 mph N/A   Clear
4:15 PM 42.8 °F 34.8 °F 21.2 °F 42% 30.31 in 10.0 mi West 17.3 mph - N/A   Clear
4:55 PM 42.8 °F 35.4 °F 23.0 °F 46% 30.33 in 10.0 mi West 15.0 mph 21.9 mph N/A   Clear
5:15 PM 42.8 °F 35.1 °F 21.2 °F 42% 30.34 in 10.0 mi West 16.1 mph 23.0 mph N/A   Clear
5:35 PM 42.8 °F 34.8 °F 21.2 °F 42% 30.34 in 10.0 mi West 17.3 mph 24.2 mph N/A   Clear
6:35 PM 42.8 °F 35.1 °F 21.2 °F 42% 30.37 in 10.0 mi West 16.1 mph 21.9 mph N/A   Clear
6:55 PM 42.8 °F 34.8 °F 21.2 °F 42% 30.37 in 10.0 mi WNW 17.3 mph 24.2 mph N/A   Clear
7:15 PM 42.8 °F 34.3 °F 21.2 °F 42% 30.38 in 10.0 mi West 19.6 mph 26.5 mph N/A   Clear
7:35 PM 42.8 °F 34.8 °F 23.0 °F 46% 30.38 in 10.0 mi West 17.3 mph - N/A   Clear
7:55 PM 42.8 °F 35.8 °F 21.2 °F 42% 30.40 in 10.0 mi West 13.8 mph 18.4 mph N/A   Clear
8:15 PM 42.8 °F 35.4 °F 23.0 °F 46% 30.40 in 10.0 mi West 15.0 mph 23.0 mph N/A   Clear
8:55 PM 42.8 °F 36.6 °F 21.2 °F 42% 30.42 in 10.0 mi West 11.5 mph 19.6 mph N/A   Clear
9:15 PM 42.8 °F 37.5 °F 21.2 °F 42% 30.41 in 10.0 mi West 9.2 mph - N/A   Clear
9:55 PM 41.0 °F 35.2 °F 21.2 °F 45% 30.42 in 10.0 mi West 9.2 mph - N/A   Clear
10:15 PM 41.0 °F 35.8 °F 21.2 °F 45% 30.42 in 10.0 mi West 8.1 mph - N/A   Clear
10:35 PM 41.0 °F 34.3 °F 23.0 °F 49% 30.42 in 10.0 mi SW 11.5 mph - N/A   Clear
10:55 PM 39.2 °F 32.5 °F 23.0 °F 52% 30.42 in 10.0 mi WSW 10.4 mph - N/A   Clear
11:15 PM 39.2 °F 32.5 °F 23.0 °F 52% 30.42 in 10.0 mi WSW 10.4 mph - N/A   Clear
11:35 PM 41.0 °F 33.9 °F 23.0 °F 49% 30.42 in 10.0 mi WSW 12.7 mph - N/A   Clear
11:55 PM 42.8 °F 36.6 °F 23.0 °F 46% 30.42 in 10.0 mi WSW 11.5 mph - N/A   Clear